User: anonymous   Login
Location: Unspecified
(0.0000°N, 0.0000°E)
Time: 16:39:22
(UTC+00:00)
Language:

DOVE 4 - Orbit

View from above orbital plane
View from above orbital plane
View from above satellite
View from above satellite

Ground track
Ground track

The orbit data is extracted from the following two-line orbital elements,

1 39430U 13066Q   19169.41672601  .00000117  00000-0  30681-4 0  9999
2 39430  97.7461 125.9869 0149691 255.1432 103.3145 14.59251969296563
Epoch (UTC): 18 June 2019 10:00:05
Eccentricity: 0.0149691
inclination: 97.7461°
perigee height: 590 km
apogee height: 801 km
right ascension of ascending node: 125.9869°
argument of perigee: 255.1432°
revolutions per day: 14.59251969
mean anomaly at epoch: 103.3145°
orbit number at epoch: 29656

The dashed part of the orbit path shows where the satellite is in the earth's shadow,  

DLR